Eagle Creek, IN

12:19 AM EDT on March 29, 2017 (GMT -0400)
Eagle Creek

Weather History for KEYE - December, 2012

Change the Weather History Date:

Monday, December 31, 2012

  Actual Average Record
Temperature  
Mean Temperature 30 °F 28 °F  
Max Temperature 34 °F 35 °F 61 °F (2010)
Min Temperature 25 °F 22 °F 6 °F (1998)
Degree Days  
Heating Degree Days 35 37  
Month to date heating degree days 847 1032  
Since 1 July heating degree days 2065 2056  
Cooling Degree Days 0 0  
Month to date cooling degree days 0 0  
Year to date cooling degree days 1339 1058  
Moisture  
Dew Point 27 °F    
Average Humidity 85    
Maximum Humidity 100    
Minimum Humidity 69    
Precipitation  
Precipitation 0.21 in 0.13 in 0.89 in (2006)
Month to date precipitation 2.20 3.08  
Year to date precipitation 37.38 40.79  
Sea Level Pressure  
Sea Level Pressure 30.13 in    
Wind  
Wind Speed 7 mph (SW)    
Max Wind Speed 13 mph    
Max Gust Speed 18 mph    
Visibility 6 miles    
Events Fog , Snow    
T = Trace of Precipitation, MM = Missing Value Source: NWS Daily Summary

Daily Weather History Graph

Daily Weather History Graph

Search for Another Location

Airport or City:

Trip Planner

Search our weather history database for the weather conditions in past years. The results will help you decide how hot, cold, wet, or windy it might be!

Date:

Astronomy

Dec. 31, 2012 Rise Set
Actual Time 8:06 AM EST 5:30 PM EST
Civil Twilight 7:36 AM EST 6:00 PM EST
Nautical Twilight 7:02 AM EST 6:34 PM EST
Astronomical Twilight 6:29 AM EST 7:07 PM EST
Moon 9:00 PM EST (12/31) 9:48 AM EST (12/31)
Length of Visible Light 10h 24m
Length of Day
9h 24m
Waning Gibbous, 90% of the Moon is Illuminated
Dec 31
Waning Gibbous
Jan 4
Last Quarter
Jan 11
New
Jan 18
First Quarter
Jan 26
Full

Hourly Weather History & Observations

Time (EST) Temp. Windchill Dew Point Humidity Pressure Visibility Wind Dir Wind Speed Gust Speed Precip Events Conditions
12:53 AM 26.1 °F 20.5 °F 21.0 °F 81% 30.27 in 9.0 mi South 4.6 mph - N/A   Clear
1:53 AM 27.0 °F 18.7 °F 21.0 °F 78% 30.24 in 10.0 mi SSW 8.1 mph - N/A   Clear
2:53 AM 28.0 °F 19.3 °F 21.9 °F 78% 30.23 in 10.0 mi SSW 9.2 mph - N/A   Clear
3:53 AM 28.0 °F 20.0 °F 21.9 °F 78% 30.23 in 10.0 mi SSW 8.1 mph - N/A   Clear
4:53 AM 28.0 °F 20.0 °F 21.9 °F 78% 30.21 in 10.0 mi SSW 8.1 mph - N/A   Clear
5:53 AM 28.9 °F 20.4 °F 23.0 °F 78% 30.19 in 10.0 mi SSW 9.2 mph - N/A   Clear
6:53 AM 30.9 °F 22.8 °F 21.9 °F 69% 30.18 in 10.0 mi SW 9.2 mph - N/A   Clear
7:53 AM 30.9 °F 23.5 °F 21.9 °F 69% 30.19 in 10.0 mi SW 8.1 mph 16.1 mph N/A   Clear
8:53 AM 30.9 °F 22.2 °F 23.0 °F 72% 30.17 in 10.0 mi SW 10.4 mph - N/A   Partly Cloudy
9:53 AM 30.9 °F 23.5 °F 23.0 °F 72% 30.17 in 10.0 mi SW 8.1 mph - N/A   Overcast
10:53 AM 32.0 °F 23.6 °F 24.1 °F 73% 30.18 in 10.0 mi SW 10.4 mph 17.3 mph 0.02 in   Overcast
11:53 AM 33.1 °F 26.9 °F 25.0 °F 72% 30.15 in 10.0 mi SW 6.9 mph - 0.04 in   Overcast
12:53 PM 34.0 °F 26.6 °F 25.0 °F 70% 30.13 in 10.0 mi SW 9.2 mph - 0.05 in   Overcast
1:21 PM 32.0 °F 24.8 °F 26.6 °F 80% 30.10 in 1.8 mi SW 8.1 mph 17.3 mph 0.02 in Snow Light Snow
1:38 PM 30.2 °F 23.4 °F 28.4 °F 93% 30.10 in 0.8 mi WSW 6.9 mph - 0.02 in Snow Light Snow
1:45 PM 30.2 °F 23.4 °F 28.4 °F 93% 30.10 in 0.5 mi Variable 6.9 mph - 0.02 in Fog , Snow Snow
1:53 PM 30.9 °F 24.3 °F 28.9 °F 92% 30.12 in 0.5 mi WSW 6.9 mph - 0.02 in Fog , Snow Snow
2:03 PM 30.2 °F 21.9 °F 30.2 °F 100% 30.09 in 1.0 mi WSW 9.2 mph - 0.01 in Snow Light Snow
2:15 PM 30.2 °F 21.9 °F 28.4 °F 93% 30.10 in 3.0 mi SW 9.2 mph - 0.01 in Snow Light Snow
2:20 PM 30.2 °F 22.6 °F 28.4 °F 93% 30.09 in 6.0 mi WSW 8.1 mph - 0.01 in   Overcast
2:53 PM 32.0 °F 25.6 °F 28.9 °F 88% 30.11 in 7.0 mi SSW 6.9 mph - 0.03 in   Overcast
3:11 PM 30.2 °F 24.3 °F 28.4 °F 93% 30.08 in 2.0 mi SSW 5.8 mph - 0.01 in Snow Light Snow
3:20 PM 30.2 °F 24.3 °F 28.4 °F 93% 30.08 in 1.8 mi SSW 5.8 mph - 0.01 in Snow Light Snow
3:33 PM 30.2 °F 24.3 °F 30.2 °F 100% 30.08 in 2.0 mi SSW 5.8 mph - 0.01 in Snow Light Snow
3:43 PM 30.2 °F 23.4 °F 30.2 °F 100% 30.07 in 1.8 mi SSW 6.9 mph - 0.02 in Snow Light Snow
3:53 PM 30.9 °F 25.2 °F 30.0 °F 96% 30.10 in 2.0 mi SSW 5.8 mph - 0.02 in Snow Light Snow
4:05 PM 32.0 °F 25.6 °F 30.2 °F 93% 30.08 in 1.2 mi SSW 6.9 mph - 0.00 in Snow Light Snow
4:40 PM 32.0 °F 25.6 °F 30.2 °F 93% 30.08 in 2.5 mi SW 6.9 mph - 0.02 in Snow Light Snow
4:50 PM 32.0 °F 27.5 °F 30.2 °F 93% 30.07 in 3.0 mi SSW 4.6 mph - 0.02 in Snow Light Snow
4:53 PM 32.0 °F 27.5 °F 30.0 °F 92% 30.10 in 3.0 mi SW 4.6 mph - 0.02 in   Overcast
5:53 PM 32.0 °F 24.8 °F 30.0 °F 92% 30.09 in 6.0 mi SSW 8.1 mph - 0.00 in   Overcast
6:53 PM 30.9 °F 24.3 °F 30.0 °F 96% 30.09 in 6.0 mi SW 6.9 mph - N/A   Overcast
7:53 PM 32.0 °F 26.4 °F 30.0 °F 92% 30.10 in 8.0 mi WSW 5.8 mph - N/A   Overcast
8:53 PM 32.0 °F 27.5 °F 28.9 °F 88% 30.09 in 8.0 mi WSW 4.6 mph - N/A   Overcast
9:53 PM 30.9 °F 26.2 °F 30.0 °F 96% 30.08 in 7.0 mi Variable 4.6 mph - N/A   Overcast
11:53 PM 30.9 °F 25.2 °F 30.0 °F 96% 30.08 in 4.0 mi West 5.8 mph - 0.01 in Snow Light Snow